Time,TemperatureF,DewpointF,PressureIn,WindDirection,WindDirectionDegrees,WindSpeedMPH,WindSpeedGustMPH,Humidity,HourlyPrecipIn,Conditions,Clouds,dailyrainin,SoftwareType,DateUTC
2013-06-02 00:02:00,38.7,37.7,27.89,North,355,3.0,4.0,96,0.01,,---,0.00,VWS V14.01,2013-06-02 05:02:00,
2013-06-02 00:08:00,38.6,37.6,27.89,NNW,348,5.0,5.0,96,0.01,,---,0.00,VWS V14.01,2013-06-02 05:08:00,
2013-06-02 00:13:00,38.5,37.5,27.89,North,350,9.0,10.0,96,0.01,,---,0.00,VWS V14.01,2013-06-02 05:13:00,
2013-06-02 00:18:00,38.5,37.5,27.90,NNE,22,4.0,11.0,96,0.01,,---,0.00,VWS V14.01,2013-06-02 05:18:00,
2013-06-02 00:23:00,38.5,37.2,27.90,North,360,5.0,7.0,95,0.01,,---,0.00,VWS V14.01,2013-06-02 05:23:00,
2013-06-02 00:28:00,38.4,37.1,27.90,North,351,5.0,12.0,95,0.01,,---,0.00,VWS V14.01,2013-06-02 05:28:00,
2013-06-02 00:33:00,38.4,36.8,27.90,NNE,18,8.0,13.0,94,0.01,,---,0.00,VWS V14.01,2013-06-02 05:33:00,
2013-06-02 00:38:00,38.3,36.7,27.90,North,9,4.0,5.0,94,0.01,,---,0.00,VWS V14.01,2013-06-02 05:38:00,
2013-06-02 00:44:00,38.3,36.7,27.90,NE,34,8.0,10.0,94,0.01,,---,0.00,VWS V14.01,2013-06-02 05:44:00,
2013-06-02 00:49:00,38.2,36.6,27.91,NNE,16,1.0,9.0,94,0.01,,---,0.00,VWS V14.01,2013-06-02 05:49:00,
2013-06-02 00:54:00,38.2,36.6,27.91,NNE,16,6.0,6.0,94,0.00,,---,0.00,VWS V14.01,2013-06-02 05:54:00,
2013-06-02 00:59:00,38.2,36.6,27.91,North,5,4.0,7.0,94,0.00,,---,0.00,VWS V14.01,2013-06-02 05:59:00,
2013-06-02 01:05:00,38.2,36.4,27.91,NNE,16,6.0,12.0,93,0.00,,---,0.00,VWS V14.01,2013-06-02 06:05:00,
2013-06-02 01:10:00,38.2,36.4,27.91,NNW,336,6.0,6.0,93,0.00,,---,0.00,VWS V14.01,2013-06-02 06:10:00,
2013-06-02 01:15:00,38.1,36.3,27.91,North,5,6.0,9.0,93,0.00,,---,0.00,VWS V14.01,2013-06-02 06:15:00,
2013-06-02 01:20:00,38.1,36.3,27.91,North,9,5.0,6.0,93,0.00,,---,0.00,VWS V14.01,2013-06-02 06:20:00,
2013-06-02 01:25:00,38.1,36.3,27.91,NNE,15,6.0,8.0,93,0.00,,---,0.00,VWS V14.01,2013-06-02 06:25:00,
2013-06-02 01:30:00,38.1,36.5,27.91,NNW,347,2.0,7.0,94,0.00,,---,0.00,VWS V14.01,2013-06-02 06:30:00,
2013-06-02 01:35:00,38.1,36.5,27.91,North,355,8.0,12.0,94,0.00,,---,0.00,VWS V14.01,2013-06-02 06:35:00,
2013-06-02 01:40:00,38.1,36.3,27.91,NNE,18,5.0,8.0,93,0.00,,---,0.00,VWS V14.01,2013-06-02 06:40:00,
2013-06-02 01:46:00,38.0,36.2,27.92,NNE,15,1.0,9.0,93,0.00,,---,0.00,VWS V14.01,2013-06-02 06:46:00,
2013-06-02 01:51:00,37.9,35.8,27.92,NNE,30,3.0,11.0,92,0.00,,---,0.00,VWS V14.01,2013-06-02 06:51:00,
2013-06-02 01:56:00,37.9,35.8,27.92,NNE,30,5.0,5.0,92,0.00,,---,0.00,VWS V14.01,2013-06-02 06:56:00,
2013-06-02 02:01:00,37.8,35.7,27.92,North,355,7.0,7.0,92,0.00,,---,0.00,VWS V14.01,2013-06-02 07:01:00,
2013-06-02 02:06:00,37.8,35.7,27.92,North,360,4.0,5.0,92,0.00,,---,0.00,VWS V14.01,2013-06-02 07:06:00,
2013-06-02 02:12:00,37.8,35.7,27.92,North,11,2.0,2.0,92,0.00,,---,0.00,VWS V14.01,2013-06-02 07:12:00,
2013-06-02 02:17:00,37.9,35.8,27.92,North,9,5.0,8.0,92,0.00,,---,0.00,VWS V14.01,2013-06-02 07:17:00,
2013-06-02 02:22:00,37.9,35.8,27.92,North,360,5.0,7.0,92,0.00,,---,0.00,VWS V14.01,2013-06-02 07:22:00,
2013-06-02 02:27:00,38.0,35.9,27.92,NNE,22,6.0,6.0,92,0.00,,---,0.00,VWS V14.01,2013-06-02 07:27:00,
2013-06-02 02:32:00,38.0,35.9,27.91,North,355,1.0,1.0,92,0.00,,---,0.00,VWS V14.01,2013-06-02 07:32:00,
2013-06-02 02:37:00,38.0,35.6,27.91,North,11,5.0,6.0,91,0.00,,---,0.00,VWS V14.01,2013-06-02 07:37:00,
2013-06-02 02:42:00,38.1,35.7,27.91,North,360,7.0,7.0,91,0.00,,---,0.00,VWS V14.01,2013-06-02 07:42:00,
2013-06-02 02:48:00,38.1,36.0,27.92,NW,315,8.0,8.0,92,0.00,,---,0.00,VWS V14.01,2013-06-02 07:48:00,
2013-06-02 02:53:00,38.0,35.9,27.92,NW,306,4.0,12.0,92,0.00,,---,0.00,VWS V14.01,2013-06-02 07:53:00,
2013-06-02 02:58:00,37.9,35.8,27.92,North,9,3.0,5.0,92,0.00,,---,0.00,VWS V14.01,2013-06-02 07:58:00,
2013-06-02 03:03:00,37.8,35.7,27.92,NNW,336,5.0,5.0,92,0.00,,---,0.00,VWS V14.01,2013-06-02 08:03:00,
2013-06-02 03:08:00,37.8,35.7,27.92,North,9,7.0,9.0,92,0.00,,---,0.00,VWS V14.01,2013-06-02 08:08:00,
2013-06-02 03:14:00,37.8,35.7,27.92,North,355,8.0,11.0,92,0.00,,---,0.00,VWS V14.01,2013-06-02 08:14:00,
2013-06-02 03:19:00,37.8,35.4,27.92,North,360,5.0,8.0,91,0.00,,---,0.00,VWS V14.01,2013-06-02 08:19:00,
2013-06-02 03:24:00,37.7,35.6,27.92,NNW,333,2.0,7.0,92,0.00,,---,0.00,VWS V14.01,2013-06-02 08:24:00,
2013-06-02 03:29:00,37.8,35.7,27.92,NNW,340,2.0,7.0,92,0.00,,---,0.00,VWS V14.01,2013-06-02 08:29:00,
2013-06-02 03:34:00,37.7,35.6,27.92,NNW,336,5.0,6.0,92,0.00,,---,0.00,VWS V14.01,2013-06-02 08:34:00,
2013-06-02 03:39:00,37.7,35.6,27.92,NNE,13,4.0,4.0,92,0.00,,---,0.00,VWS V14.01,2013-06-02 08:39:00,
2013-06-02 03:44:00,37.8,35.7,27.92,North,5,1.0,5.0,92,0.00,,---,0.00,VWS V14.01,2013-06-02 08:44:00,
2013-06-02 03:50:00,37.8,35.7,27.92,NNW,333,3.0,4.0,92,0.00,,---,0.00,VWS V14.01,2013-06-02 08:50:00,
2013-06-02 03:55:00,37.7,35.6,27.92,NNE,13,3.0,5.0,92,0.00,,---,0.00,VWS V14.01,2013-06-02 08:55:00,
2013-06-02 04:00:00,37.7,35.9,27.92,NNE,18,2.0,5.0,93,0.00,,---,0.00,VWS V14.01,2013-06-02 09:00:00,
2013-06-02 04:05:00,37.5,35.7,27.92,NNW,335,5.0,5.0,93,0.00,,---,0.00,VWS V14.01,2013-06-02 09:05:00,
2013-06-02 04:10:00,37.3,35.7,27.92,NW,321,1.0,7.0,94,0.00,,---,0.00,VWS V14.01,2013-06-02 09:10:00,
2013-06-02 04:15:00,37.2,35.6,27.92,NNW,334,5.0,5.0,94,0.00,,---,0.00,VWS V14.01,2013-06-02 09:15:00,
2013-06-02 04:20:00,37.1,35.5,27.92,NNW,340,1.0,4.0,94,0.00,,---,0.00,VWS V14.01,2013-06-02 09:20:00,
2013-06-02 04:26:00,37.1,35.8,27.92,NNW,348,4.0,7.0,95,0.00,,---,0.00,VWS V14.01,2013-06-02 09:26:00,
2013-06-02 04:31:00,37.0,35.7,27.92,NNW,340,6.0,6.0,95,0.00,,---,0.00,VWS V14.01,2013-06-02 09:31:00,
2013-06-02 04:36:00,37.0,35.7,27.92,North,11,6.0,8.0,95,0.01,,---,0.01,VWS V14.01,2013-06-02 09:36:00,
2013-06-02 04:41:00,37.0,35.7,27.92,NW,323,6.0,6.0,95,0.01,,---,0.01,VWS V14.01,2013-06-02 09:41:00,
2013-06-02 04:46:00,37.0,36.0,27.92,NNW,332,6.0,8.0,96,0.01,,---,0.01,VWS V14.01,2013-06-02 09:46:00,
2013-06-02 04:52:00,37.0,35.7,27.92,NNW,340,9.0,10.0,95,0.01,,---,0.01,VWS V14.01,2013-06-02 09:52:00,
2013-06-02 04:57:00,36.9,35.6,27.92,NNE,15,7.0,11.0,95,0.01,,---,0.01,VWS V14.01,2013-06-02 09:57:00,
2013-06-02 05:02:00,36.9,35.6,27.92,NW,307,2.0,8.0,95,0.01,,---,0.01,VWS V14.01,2013-06-02 10:02:00,
2013-06-02 05:07:00,36.9,35.6,27.92,NW,322,4.0,9.0,95,0.01,,---,0.01,VWS V14.01,2013-06-02 10:07:00,
2013-06-02 05:12:00,36.8,35.5,27.92,North,5,6.0,14.0,95,0.01,,---,0.01,VWS V14.01,2013-06-02 10:12:00,
2013-06-02 05:17:00,36.7,36.7,27.92,NNW,342,5.0,5.0,100,0.01,,---,0.01,VWS V14.01,2013-06-02 10:17:00,
2013-06-02 05:22:00,36.6,35.3,27.92,NNW,348,9.0,12.0,95,0.01,,---,0.01,VWS V14.01,2013-06-02 10:22:00,
2013-06-02 05:28:00,36.5,35.2,27.92,North,360,5.0,8.0,95,0.01,,---,0.01,VWS V14.01,2013-06-02 10:28:00,
2013-06-02 05:33:00,36.3,35.0,27.93,NW,311,6.0,7.0,95,0.01,,---,0.01,VWS V14.01,2013-06-02 10:33:00,
2013-06-02 05:38:00,36.2,34.9,27.93,North,11,11.0,12.0,95,0.00,,---,0.01,VWS V14.01,2013-06-02 10:38:00,
2013-06-02 05:43:00,36.1,34.8,27.93,North,10,3.0,7.0,95,0.00,,---,0.01,VWS V14.01,2013-06-02 10:43:00,
2013-06-02 05:48:00,36.0,34.7,27.94,North,5,5.0,5.0,95,0.00,,---,0.01,VWS V14.01,2013-06-02 10:48:00,
2013-06-02 05:54:00,35.9,34.6,27.94,North,360,2.0,3.0,95,0.00,,---,0.01,VWS V14.01,2013-06-02 10:54:00,
2013-06-02 05:59:00,35.8,34.5,27.94,WNW,298,5.0,9.0,95,0.00,,---,0.01,VWS V14.01,2013-06-02 10:59:00,
2013-06-02 06:04:00,35.8,34.5,27.94,NNW,336,9.0,9.0,95,0.00,,---,0.01,VWS V14.01,2013-06-02 11:04:00,
2013-06-02 06:09:00,35.8,34.5,27.94,North,355,8.0,11.0,95,0.00,,---,0.01,VWS V14.01,2013-06-02 11:09:00,
2013-06-02 06:14:00,35.9,34.6,27.94,WNW,301,6.0,8.0,95,0.00,,---,0.01,VWS V14.01,2013-06-02 11:14:00,
2013-06-02 06:19:00,36.0,34.7,27.94,North,355,6.0,6.0,95,0.00,,---,0.01,VWS V14.01,2013-06-02 11:19:00,
2013-06-02 06:24:00,36.0,34.4,27.94,North,360,9.0,9.0,94,0.00,,---,0.01,VWS V14.01,2013-06-02 11:24:00,
2013-06-02 06:30:00,35.9,34.3,27.94,North,5,1.0,9.0,94,0.00,,---,0.01,VWS V14.01,2013-06-02 11:30:00,
2013-06-02 06:35:00,35.9,34.3,27.94,NNE,20,2.0,2.0,94,0.00,,---,0.01,VWS V14.01,2013-06-02 11:35:00,
2013-06-02 06:40:00,35.9,34.3,27.94,North,355,6.0,6.0,94,0.00,,---,0.01,VWS V14.01,2013-06-02 11:40:00,
2013-06-02 06:45:00,36.1,34.5,27.94,NW,323,8.0,8.0,94,0.00,,---,0.01,VWS V14.01,2013-06-02 11:45:00,
2013-06-02 06:50:00,36.3,34.5,27.94,North,355,7.0,7.0,93,0.00,,---,0.01,VWS V14.01,2013-06-02 11:50:00,
2013-06-02 06:56:00,36.5,34.4,27.94,NW,309,5.0,7.0,92,0.00,,---,0.01,VWS V14.01,2013-06-02 11:56:00,
2013-06-02 07:01:00,36.6,34.2,27.95,North,360,10.0,12.0,91,0.00,,---,0.01,VWS V14.01,2013-06-02 12:01:00,
2013-06-02 07:06:00,36.7,34.3,27.95,NW,315,6.0,11.0,91,0.00,,---,0.01,VWS V14.01,2013-06-02 12:06:00,
2013-06-02 07:11:00,36.8,34.4,27.95,North,5,0.0,4.0,91,0.00,,---,0.01,VWS V14.01,2013-06-02 12:11:00,
2013-06-02 07:16:00,36.8,34.2,27.95,NNW,344,6.0,8.0,90,0.00,,---,0.01,VWS V14.01,2013-06-02 12:16:00,
2013-06-02 07:21:00,36.8,34.2,27.95,NNE,22,5.0,12.0,90,0.00,,---,0.01,VWS V14.01,2013-06-02 12:21:00,
2013-06-02 07:27:00,36.9,34.2,27.95,North,351,5.0,10.0,90,0.00,,---,0.01,VWS V14.01,2013-06-02 12:27:00,
2013-06-02 07:32:00,37.1,34.4,27.95,North,351,5.0,9.0,90,0.00,,---,0.01,VWS V14.01,2013-06-02 12:32:00,
2013-06-02 07:37:00,37.0,33.5,27.95,NNW,339,13.0,16.0,87,0.00,,---,0.01,VWS V14.01,2013-06-02 12:37:00,
2013-06-02 07:42:00,36.9,33.4,27.95,NNW,336,3.0,11.0,87,0.00,,---,0.01,VWS V14.01,2013-06-02 12:42:00,
2013-06-02 07:47:00,36.9,33.4,27.95,NW,323,4.0,13.0,87,0.00,,---,0.01,VWS V14.01,2013-06-02 12:47:00,
2013-06-02 07:52:00,36.9,33.4,27.95,NNW,346,6.0,10.0,87,0.00,,---,0.01,VWS V14.01,2013-06-02 12:52:00,
2013-06-02 07:57:00,37.2,34.0,27.95,North,5,10.0,10.0,88,0.00,,---,0.01,VWS V14.01,2013-06-02 12:57:00,
2013-06-02 08:02:00,37.3,33.8,27.96,NNW,342,6.0,11.0,87,0.00,,---,0.01,VWS V14.01,2013-06-02 13:02:00,
2013-06-02 08:07:00,37.4,33.9,27.96,NW,321,3.0,11.0,87,0.00,,---,0.01,VWS V14.01,2013-06-02 13:07:00,
2013-06-02 08:13:00,37.6,33.8,27.96,North,5,5.0,10.0,86,0.00,,---,0.01,VWS V14.01,2013-06-02 13:13:00,
2013-06-02 08:18:00,37.5,34.0,27.97,NNW,343,5.0,12.0,87,0.00,,---,0.01,VWS V14.01,2013-06-02 13:18:00,
2013-06-02 08:23:00,37.4,33.6,27.97,North,355,7.0,11.0,86,0.00,,---,0.01,VWS V14.01,2013-06-02 13:23:00,
2013-06-02 08:28:00,37.4,33.6,27.97,NNE,13,6.0,13.0,86,0.00,,---,0.01,VWS V14.01,2013-06-02 13:28:00,
2013-06-02 08:33:00,37.5,33.7,27.97,North,355,5.0,13.0,86,0.00,,---,0.01,VWS V14.01,2013-06-02 13:33:00,
2013-06-02 08:38:00,37.7,33.9,27.97,NW,324,10.0,12.0,86,0.00,,---,0.01,VWS V14.01,2013-06-02 13:38:00,
2013-06-02 08:43:00,38.0,34.2,27.97,North,360,6.0,8.0,86,0.00,,---,0.01,VWS V14.01,2013-06-02 13:43:00,
2013-06-02 08:48:00,38.4,34.6,27.97,NNW,336,4.0,11.0,86,0.00,,---,0.01,VWS V14.01,2013-06-02 13:48:00,
2013-06-02 08:53:00,38.8,34.7,27.97,North,360,4.0,4.0,85,0.00,,---,0.01,VWS V14.01,2013-06-02 13:53:00,
2013-06-02 08:58:00,38.9,34.2,27.97,WNW,294,11.0,12.0,83,0.00,,---,0.01,VWS V14.01,2013-06-02 13:58:00,
2013-06-02 09:04:00,38.8,34.4,27.97,NW,321,10.0,10.0,84,0.00,,---,0.01,VWS V14.01,2013-06-02 14:04:00,
2013-06-02 09:09:00,38.9,34.2,27.97,NW,319,4.0,5.0,83,0.00,,---,0.01,VWS V14.01,2013-06-02 14:09:00,
2013-06-02 09:14:00,38.9,33.9,27.97,WNW,289,3.0,9.0,82,0.00,,---,0.01,VWS V14.01,2013-06-02 14:14:00,
2013-06-02 09:20:00,39.1,33.8,27.97,NNW,341,7.0,12.0,81,0.00,,---,0.01,VWS V14.01,2013-06-02 14:20:00,
2013-06-02 09:25:00,39.7,33.7,27.97,NNW,347,7.0,10.0,79,0.00,,---,0.01,VWS V14.01,2013-06-02 14:25:00,
2013-06-02 09:30:00,39.9,34.2,27.97,NW,315,5.0,10.0,80,0.00,,---,0.01,VWS V14.01,2013-06-02 14:30:00,
2013-06-02 09:35:00,40.1,34.1,27.96,NW,317,11.0,11.0,79,0.00,,---,0.01,VWS V14.01,2013-06-02 14:35:00,
2013-06-02 09:40:00,40.4,34.7,27.96,North,355,1.0,4.0,80,0.00,,---,0.01,VWS V14.01,2013-06-02 14:40:00,
2013-06-02 09:46:00,40.9,34.3,27.96,WNW,297,4.0,9.0,77,0.00,,---,0.01,VWS V14.01,2013-06-02 14:46:00,
2013-06-02 09:51:00,40.6,34.0,27.96,NW,305,5.0,13.0,77,0.00,,---,0.01,VWS V14.01,2013-06-02 14:51:00,
2013-06-02 09:56:00,41.3,34.3,27.96,ENE,61,8.0,11.0,76,0.00,,---,0.01,VWS V14.01,2013-06-02 14:56:00,
2013-06-02 10:01:00,42.2,35.5,27.97,NNW,340,8.0,13.0,77,0.00,,---,0.01,VWS V14.01,2013-06-02 15:01:00,
2013-06-02 10:06:00,41.5,35.2,27.97,NW,323,4.0,5.0,78,0.00,,---,0.01,VWS V14.01,2013-06-02 15:06:00,
2013-06-02 10:11:00,41.1,34.5,27.97,NNW,344,7.0,7.0,77,0.00,,---,0.01,VWS V14.01,2013-06-02 15:11:00,
2013-06-02 10:16:00,41.4,34.7,27.97,NNW,346,7.0,7.0,77,0.00,,---,0.01,VWS V14.01,2013-06-02 15:16:00,
2013-06-02 10:22:00,41.4,34.4,27.97,NNW,333,5.0,5.0,76,0.00,,---,0.01,VWS V14.01,2013-06-02 15:22:00,
2013-06-02 10:27:00,41.5,33.8,27.97,NNE,20,6.0,12.0,74,0.00,,---,0.01,VWS V14.01,2013-06-02 15:27:00,
2013-06-02 10:32:00,42.4,35.0,27.97,NNW,327,3.0,5.0,75,0.00,,---,0.01,VWS V14.01,2013-06-02 15:32:00,
2013-06-02 10:37:00,42.7,35.7,27.97,NW,309,9.0,10.0,76,0.00,,---,0.01,VWS V14.01,2013-06-02 15:37:00,
2013-06-02 10:43:00,42.2,35.2,27.97,NNW,347,8.0,8.0,76,0.00,,---,0.01,VWS V14.01,2013-06-02 15:43:00,
2013-06-02 10:48:00,42.4,35.4,27.98,West,269,5.0,8.0,76,0.00,,---,0.01,VWS V14.01,2013-06-02 15:48:00,
2013-06-02 10:53:00,42.6,35.2,27.98,North,360,10.0,11.0,75,0.00,,---,0.01,VWS V14.01,2013-06-02 15:53:00,
2013-06-02 10:58:00,42.3,35.0,27.98,North,349,7.0,11.0,75,0.00,,---,0.01,VWS V14.01,2013-06-02 15:58:00,
2013-06-02 11:03:00,42.5,34.5,27.98,NNW,333,4.0,9.0,73,0.00,,---,0.01,VWS V14.01,2013-06-02 16:03:00,
2013-06-02 11:08:00,43.2,35.1,27.98,NW,304,10.0,10.0,73,0.00,,---,0.01,VWS V14.01,2013-06-02 16:08:00,
2013-06-02 11:13:00,43.5,34.7,27.98,WNW,303,6.0,9.0,71,0.00,,---,0.01,VWS V14.01,2013-06-02 16:13:00,
2013-06-02 11:19:00,44.0,34.1,27.98,WNW,294,3.0,6.0,68,0.00,,---,0.01,VWS V14.01,2013-06-02 16:19:00,
2013-06-02 11:24:00,44.0,34.5,27.98,West,278,6.0,10.0,69,0.00,,---,0.01,VWS V14.01,2013-06-02 16:24:00,
2013-06-02 11:29:00,44.0,34.9,27.98,WNW,302,9.0,10.0,70,0.00,,---,0.01,VWS V14.01,2013-06-02 16:29:00,
2013-06-02 11:34:00,44.8,36.3,27.98,NW,315,3.0,5.0,72,0.00,,---,0.01,VWS V14.01,2013-06-02 16:34:00,
2013-06-02 11:39:00,45.2,35.7,27.98,WNW,296,8.0,10.0,69,0.00,,---,0.01,VWS V14.01,2013-06-02 16:39:00,
2013-06-02 11:44:00,45.8,35.5,27.98,NNW,332,6.0,9.0,67,0.00,,---,0.01,VWS V14.01,2013-06-02 16:44:00,
2013-06-02 11:49:00,46.4,34.9,27.97,NW,314,5.0,7.0,64,0.00,,---,0.01,VWS V14.01,2013-06-02 16:49:00,
2013-06-02 11:54:00,45.5,35.6,27.97,West,275,5.0,6.0,68,0.00,,---,0.01,VWS V14.01,2013-06-02 16:54:00,
2013-06-02 11:59:00,45.5,35.2,27.97,NNW,327,3.0,3.0,67,0.00,,---,0.01,VWS V14.01,2013-06-02 16:59:00,
2013-06-02 12:04:00,45.5,34.8,27.97,NW,311,2.0,3.0,66,0.00,,---,0.01,VWS V14.01,2013-06-02 17:04:00,
2013-06-02 12:09:00,45.9,36.0,27.97,NNW,336,3.0,7.0,68,0.00,,---,0.01,VWS V14.01,2013-06-02 17:09:00,
2013-06-02 12:15:00,46.4,35.3,27.97,NW,305,5.0,10.0,65,0.00,,---,0.01,VWS V14.01,2013-06-02 17:15:00,
2013-06-02 12:20:00,46.7,35.6,27.97,West,278,12.0,12.0,65,0.00,,---,0.01,VWS V14.01,2013-06-02 17:20:00,
2013-06-02 12:25:00,46.6,35.1,27.97,NW,324,9.0,11.0,64,0.00,,---,0.01,VWS V14.01,2013-06-02 17:25:00,
2013-06-02 12:30:00,46.9,36.2,27.97,NNW,340,3.0,7.0,66,0.00,,---,0.01,VWS V14.01,2013-06-02 17:30:00,
2013-06-02 12:35:00,47.4,35.5,27.97,West,263,5.0,10.0,63,0.00,,---,0.01,VWS V14.01,2013-06-02 17:35:00,
2013-06-02 12:40:00,47.0,35.1,27.97,NNW,343,10.0,10.0,63,0.00,,---,0.01,VWS V14.01,2013-06-02 17:40:00,
2013-06-02 12:45:00,47.3,35.8,27.97,North,355,5.0,7.0,64,0.00,,---,0.01,VWS V14.01,2013-06-02 17:45:00,
2013-06-02 12:50:00,47.7,35.3,27.96,WNW,302,6.0,9.0,62,0.00,,---,0.01,VWS V14.01,2013-06-02 17:50:00,
2013-06-02 12:55:00,48.0,35.6,27.96,NNE,20,4.0,8.0,62,0.00,,---,0.01,VWS V14.01,2013-06-02 17:55:00,
2013-06-02 13:00:00,47.7,35.7,27.96,West,280,1.0,2.0,63,0.00,,---,0.01,VWS V14.01,2013-06-02 18:00:00,
2013-06-02 13:05:00,47.6,36.0,27.96,WNW,296,1.0,7.0,64,0.00,,---,0.01,VWS V14.01,2013-06-02 18:05:00,
2013-06-02 13:11:00,48.2,35.4,27.96,WNW,300,4.0,13.0,61,0.00,,---,0.01,VWS V14.01,2013-06-02 18:11:00,
2013-06-02 13:16:00,48.3,35.1,27.96,North,360,7.0,14.0,60,0.00,,---,0.01,VWS V14.01,2013-06-02 18:16:00,
2013-06-02 13:21:00,49.0,36.6,27.96,North,11,5.0,9.0,62,0.00,,---,0.01,VWS V14.01,2013-06-02 18:21:00,
2013-06-02 13:26:00,48.4,35.6,27.96,West,278,9.0,9.0,61,0.00,,---,0.01,VWS V14.01,2013-06-02 18:26:00,
2013-06-02 13:31:00,49.2,35.9,27.96,North,355,10.0,14.0,60,0.00,,---,0.01,VWS V14.01,2013-06-02 18:31:00,
2013-06-02 13:37:00,49.3,35.2,27.96,North,351,5.0,9.0,58,0.00,,---,0.01,VWS V14.01,2013-06-02 18:37:00,
2013-06-02 13:42:00,48.8,35.1,27.96,WNW,288,8.0,9.0,59,0.00,,---,0.01,VWS V14.01,2013-06-02 18:42:00,
2013-06-02 13:47:00,49.2,35.5,27.96,NW,315,6.0,12.0,59,0.00,,---,0.01,VWS V14.01,2013-06-02 18:47:00,
2013-06-02 13:52:00,49.5,36.2,27.96,NNW,342,5.0,8.0,60,0.00,,---,0.01,VWS V14.01,2013-06-02 18:52:00,
2013-06-02 13:57:00,50.1,35.0,27.96,West,262,8.0,9.0,56,0.00,,---,0.01,VWS V14.01,2013-06-02 18:57:00,
2013-06-02 14:02:00,50.0,34.5,27.96,WNW,298,6.0,6.0,55,0.00,,---,0.01,VWS V14.01,2013-06-02 19:02:00,
2013-06-02 14:08:00,49.8,34.8,27.96,NW,313,6.0,6.0,56,0.00,,---,0.01,VWS V14.01,2013-06-02 19:08:00,
2013-06-02 14:13:00,50.3,34.3,27.96,WSW,250,7.0,13.0,54,0.00,,---,0.01,VWS V14.01,2013-06-02 19:13:00,
2013-06-02 14:18:00,50.0,34.9,27.96,NW,319,4.0,7.0,56,0.00,,---,0.01,VWS V14.01,2013-06-02 19:18:00,
2013-06-02 14:23:00,50.9,35.8,27.96,West,275,4.0,5.0,56,0.00,,---,0.01,VWS V14.01,2013-06-02 19:23:00,
2013-06-02 14:28:00,51.0,35.0,27.96,WSW,237,5.0,14.0,54,0.00,,---,0.01,VWS V14.01,2013-06-02 19:28:00,
2013-06-02 14:33:00,50.9,34.4,27.96,WNW,302,11.0,13.0,53,0.00,,---,0.01,VWS V14.01,2013-06-02 19:33:00,
2013-06-02 14:38:00,50.3,34.3,27.96,NNE,30,7.0,7.0,54,0.00,,---,0.01,VWS V14.01,2013-06-02 19:38:00,
2013-06-02 14:43:00,50.9,35.3,27.96,West,275,2.0,4.0,55,0.00,,---,0.01,VWS V14.01,2013-06-02 19:43:00,
2013-06-02 14:48:00,51.6,35.0,27.96,NNW,344,10.0,12.0,53,0.00,,---,0.01,VWS V14.01,2013-06-02 19:48:00,
2013-06-02 14:54:00,52.2,36.1,27.96,NNE,17,5.0,9.0,54,0.00,,---,0.01,VWS V14.01,2013-06-02 19:54:00,
2013-06-02 14:59:00,51.7,34.7,27.96,North,355,6.0,9.0,52,0.00,,---,0.01,VWS V14.01,2013-06-02 19:59:00,
2013-06-02 15:04:00,50.9,33.9,27.96,NW,324,6.0,12.0,52,0.00,,---,0.01,VWS V14.01,2013-06-02 20:04:00,
2013-06-02 15:09:00,51.4,34.9,27.96,NW,313,4.0,8.0,53,0.00,,---,0.01,VWS V14.01,2013-06-02 20:09:00,
2013-06-02 15:14:00,51.5,33.5,27.96,North,355,10.0,10.0,50,0.00,,---,0.01,VWS V14.01,2013-06-02 20:14:00,
2013-06-02 15:19:00,51.7,34.7,27.96,WNW,301,4.0,8.0,52,0.00,,---,0.01,VWS V14.01,2013-06-02 20:19:00,
2013-06-02 15:24:00,51.7,35.1,27.96,NNW,348,5.0,8.0,53,0.00,,---,0.01,VWS V14.01,2013-06-02 20:24:00,
2013-06-02 15:29:00,52.3,34.7,27.96,WSW,257,6.0,9.0,51,0.00,,---,0.01,VWS V14.01,2013-06-02 20:29:00,
2013-06-02 15:35:00,52.1,34.0,27.95,NNW,333,3.0,6.0,50,0.00,,---,0.01,VWS V14.01,2013-06-02 20:35:00,
2013-06-02 15:40:00,52.1,34.5,27.95,NW,313,4.0,10.0,51,0.00,,---,0.01,VWS V14.01,2013-06-02 20:40:00,
2013-06-02 15:45:00,52.4,34.8,27.95,NNE,16,1.0,8.0,51,0.00,,---,0.01,VWS V14.01,2013-06-02 20:45:00,
2013-06-02 15:50:00,52.7,34.1,27.95,WSW,248,1.0,11.0,49,0.00,,---,0.01,VWS V14.01,2013-06-02 20:50:00,
2013-06-02 15:55:00,52.7,34.6,27.95,NNW,348,6.0,10.0,50,0.00,,---,0.01,VWS V14.01,2013-06-02 20:55:00,
2013-06-02 16:00:00,52.9,34.3,27.95,WNW,290,7.0,9.0,49,0.00,,---,0.01,VWS V14.01,2013-06-02 21:00:00,
2013-06-02 16:06:00,52.2,34.6,27.95,NW,305,6.0,9.0,51,0.00,,---,0.01,VWS V14.01,2013-06-02 21:06:00,
2013-06-02 16:11:00,52.5,34.4,27.95,NNW,334,6.0,6.0,50,0.00,,---,0.01,VWS V14.01,2013-06-02 21:11:00,
2013-06-02 16:16:00,53.0,34.9,27.95,WNW,284,9.0,9.0,50,0.00,,---,0.01,VWS V14.01,2013-06-02 21:16:00,
2013-06-02 16:21:00,52.8,33.7,27.95,NNW,344,12.0,12.0,48,0.00,,---,0.01,VWS V14.01,2013-06-02 21:21:00,
2013-06-02 16:26:00,52.4,34.3,27.95,NW,306,4.0,7.0,50,0.00,,---,0.01,VWS V14.01,2013-06-02 21:26:00,
2013-06-02 16:31:00,53.3,34.7,27.95,NW,319,7.0,8.0,49,0.00,,---,0.01,VWS V14.01,2013-06-02 21:31:00,
2013-06-02 16:36:00,53.6,35.9,27.95,North,9,12.0,12.0,51,0.00,,---,0.01,VWS V14.01,2013-06-02 21:36:00,
2013-06-02 16:42:00,53.4,34.2,27.95,NW,322,9.0,12.0,48,0.00,,---,0.01,VWS V14.01,2013-06-02 21:42:00,
2013-06-02 16:47:00,53.1,33.4,27.95,NNW,327,10.0,12.0,47,0.00,,---,0.01,VWS V14.01,2013-06-02 21:47:00,
2013-06-02 16:52:00,52.8,34.2,27.95,North,360,9.0,10.0,49,0.00,,---,0.01,VWS V14.01,2013-06-02 21:52:00,
2013-06-02 16:57:00,53.3,34.7,27.95,NW,317,3.0,9.0,49,0.00,,---,0.01,VWS V14.01,2013-06-02 21:57:00,
2013-06-02 17:02:00,53.6,33.9,27.95,NW,323,9.0,10.0,47,0.00,,---,0.01,VWS V14.01,2013-06-02 22:02:00,
2013-06-02 17:07:00,53.3,33.6,27.95,NW,314,6.0,15.0,47,0.00,,---,0.01,VWS V14.01,2013-06-02 22:07:00,
2013-06-02 17:12:00,52.6,33.5,27.95,NW,325,5.0,6.0,48,0.00,,---,0.01,VWS V14.01,2013-06-02 22:12:00,
2013-06-02 17:17:00,53.0,33.8,27.95,WNW,289,7.0,13.0,48,0.00,,---,0.01,VWS V14.01,2013-06-02 22:17:00,
2013-06-02 17:22:00,53.0,33.3,27.95,West,281,4.0,9.0,47,0.00,,---,0.01,VWS V14.01,2013-06-02 22:22:00,
2013-06-02 17:27:00,53.0,33.3,27.95,NW,321,4.0,5.0,47,0.00,,---,0.01,VWS V14.01,2013-06-02 22:27:00,
2013-06-02 17:33:00,53.5,33.2,27.95,North,355,5.0,12.0,46,0.00,,---,0.01,VWS V14.01,2013-06-02 22:33:00,
2013-06-02 17:38:00,53.9,33.1,27.95,NNW,336,10.0,11.0,45,0.00,,---,0.01,VWS V14.01,2013-06-02 22:38:00,
2013-06-02 17:43:00,54.0,33.7,27.95,NNW,332,2.0,4.0,46,0.00,,---,0.01,VWS V14.01,2013-06-02 22:43:00,
2013-06-02 17:49:00,54.1,34.3,27.95,NW,312,9.0,9.0,47,0.00,,---,0.01,VWS V14.01,2013-06-02 22:49:00,
2013-06-02 17:54:00,54.5,34.2,27.95,North,355,3.0,6.0,46,0.00,,---,0.01,VWS V14.01,2013-06-02 22:54:00,
2013-06-02 17:59:00,54.4,33.5,27.95,WNW,288,5.0,8.0,45,0.00,,---,0.01,VWS V14.01,2013-06-02 22:59:00,
2013-06-02 18:04:00,53.7,33.4,27.95,NW,321,5.0,5.0,46,0.00,,---,0.01,VWS V14.01,2013-06-02 23:04:00,
2013-06-02 18:10:00,53.4,33.2,27.95,NNW,334,7.0,8.0,46,0.00,,---,0.01,VWS V14.01,2013-06-02 23:10:00,
2013-06-02 18:15:00,52.9,33.2,27.95,North,5,5.0,8.0,47,0.00,,---,0.01,VWS V14.01,2013-06-02 23:15:00,
2013-06-02 18:20:00,53.0,33.8,27.95,North,360,4.0,9.0,48,0.00,,---,0.01,VWS V14.01,2013-06-02 23:20:00,
2013-06-02 18:25:00,53.3,33.6,27.95,NNW,341,11.0,11.0,47,0.00,,---,0.01,VWS V14.01,2013-06-02 23:25:00,
2013-06-02 18:30:00,52.5,33.4,27.95,NW,313,3.0,6.0,48,0.00,,---,0.01,VWS V14.01,2013-06-02 23:30:00,
2013-06-02 18:35:00,52.4,33.3,27.95,NNW,329,2.0,8.0,48,0.00,,---,0.01,VWS V14.01,2013-06-02 23:35:00,
2013-06-02 18:40:00,52.3,33.2,27.95,WNW,299,3.0,10.0,48,0.00,,---,0.01,VWS V14.01,2013-06-02 23:40:00,
2013-06-02 18:45:00,52.3,33.7,27.95,WNW,301,5.0,9.0,49,0.00,,---,0.01,VWS V14.01,2013-06-02 23:45:00,
2013-06-02 18:51:00,52.4,33.3,27.95,NNW,334,4.0,4.0,48,0.00,,---,0.01,VWS V14.01,2013-06-02 23:51:00,
2013-06-02 18:56:00,52.7,34.1,27.95,NNW,329,2.0,9.0,49,0.00,,---,0.01,VWS V14.01,2013-06-02 23:56:00,
2013-06-02 19:01:00,52.7,33.0,27.95,NW,321,3.0,10.0,47,0.00,,---,0.01,VWS V14.01,2013-06-03 00:01:00,
2013-06-02 19:06:00,52.8,34.2,27.95,North,355,4.0,5.0,49,0.00,,---,0.01,VWS V14.01,2013-06-03 00:06:00,
2013-06-02 19:12:00,52.5,33.4,27.95,NW,323,2.0,8.0,48,0.00,,---,0.01,VWS V14.01,2013-06-03 00:12:00,
2013-06-02 19:17:00,52.4,33.3,27.96,North,351,4.0,6.0,48,0.00,,---,0.01,VWS V14.01,2013-06-03 00:17:00,
2013-06-02 19:22:00,52.6,33.5,27.96,WNW,286,8.0,8.0,48,0.00,,---,0.01,VWS V14.01,2013-06-03 00:22:00,
2013-06-02 19:27:00,52.2,33.6,27.96,NNW,345,4.0,6.0,49,0.00,,---,0.01,VWS V14.01,2013-06-03 00:27:00,
2013-06-02 19:32:00,51.8,33.8,27.96,NNW,346,0.0,0.0,50,0.00,,---,0.01,VWS V14.01,2013-06-03 00:32:00,
2013-06-02 19:37:00,51.4,33.9,27.96,WNW,302,2.0,3.0,51,0.00,,---,0.01,VWS V14.01,2013-06-03 00:37:00,
2013-06-02 19:43:00,51.4,33.9,27.96,NW,325,3.0,4.0,51,0.00,,---,0.01,VWS V14.01,2013-06-03 00:43:00,
2013-06-02 19:48:00,51.5,34.0,27.96,North,5,4.0,5.0,51,0.00,,---,0.01,VWS V14.01,2013-06-03 00:48:00,
2013-06-02 19:53:00,51.5,34.0,27.96,NW,321,2.0,4.0,51,0.00,,---,0.01,VWS V14.01,2013-06-03 00:53:00,
2013-06-02 19:58:00,51.4,33.9,27.96,NW,320,2.0,4.0,51,0.00,,---,0.01,VWS V14.01,2013-06-03 00:58:00,
2013-06-02 20:03:00,51.2,33.7,27.96,NW,317,2.0,2.0,51,0.00,,---,0.01,VWS V14.01,2013-06-03 01:03:00,
2013-06-02 20:08:00,51.0,33.5,27.96,NNW,342,3.0,7.0,51,0.00,,---,0.01,VWS V14.01,2013-06-03 01:08:00,
2013-06-02 20:14:00,50.6,33.6,27.96,NNW,340,2.0,6.0,52,0.00,,---,0.01,VWS V14.01,2013-06-03 01:14:00,
2013-06-02 20:19:00,50.3,33.8,27.97,North,351,2.0,3.0,53,0.00,,---,0.01,VWS V14.01,2013-06-03 01:19:00,
2013-06-02 20:24:00,50.0,34.0,27.97,North,351,1.0,2.0,54,0.00,,---,0.01,VWS V14.01,2013-06-03 01:24:00,
2013-06-02 20:29:00,49.6,34.1,27.97,North,351,0.0,1.0,55,0.00,,---,0.01,VWS V14.01,2013-06-03 01:29:00,
2013-06-02 20:34:00,49.2,34.2,27.97,North,351,0.0,0.0,56,0.00,,---,0.01,VWS V14.01,2013-06-03 01:34:00,
2013-06-02 20:39:00,49.0,34.5,27.97,North,351,0.0,0.0,57,0.00,,---,0.01,VWS V14.01,2013-06-03 01:39:00,
2013-06-02 20:44:00,48.5,34.4,27.97,North,351,0.0,0.0,58,0.00,,---,0.01,VWS V14.01,2013-06-03 01:44:00,
2013-06-02 20:49:00,48.0,34.8,27.97,North,351,0.0,0.0,60,0.00,,---,0.01,VWS V14.01,2013-06-03 01:49:00,
2013-06-02 20:54:00,47.5,33.9,27.97,North,351,0.0,1.0,59,0.00,,---,0.01,VWS V14.01,2013-06-03 01:54:00,
2013-06-02 20:59:00,47.1,33.9,27.97,North,351,0.0,0.0,60,0.00,,---,0.01,VWS V14.01,2013-06-03 01:59:00,
2013-06-02 21:04:00,46.7,34.0,27.97,North,351,0.0,0.0,61,0.00,,---,0.01,VWS V14.01,2013-06-03 02:04:00,
2013-06-02 21:09:00,46.3,34.0,27.97,North,351,0.0,0.0,62,0.00,,---,0.01,VWS V14.01,2013-06-03 02:09:00,
2013-06-02 21:14:00,45.8,33.9,27.97,North,351,0.0,0.0,63,0.00,,---,0.01,VWS V14.01,2013-06-03 02:14:00,
2013-06-02 21:19:00,45.1,34.0,27.97,North,351,0.0,0.0,65,0.00,,---,0.01,VWS V14.01,2013-06-03 02:19:00,
2013-06-02 21:24:00,44.5,33.9,27.97,North,351,0.0,0.0,66,0.00,,---,0.01,VWS V14.01,2013-06-03 02:24:00,
2013-06-02 21:30:00,43.9,34.4,27.97,North,351,0.0,0.0,69,0.00,,---,0.01,VWS V14.01,2013-06-03 02:30:00,
2013-06-02 21:35:00,43.3,35.9,27.98,North,351,0.0,0.0,75,0.00,,---,0.01,VWS V14.01,2013-06-03 02:35:00,
2013-06-02 21:40:00,42.8,36.4,27.98,North,351,0.0,0.0,78,0.00,,---,0.01,VWS V14.01,2013-06-03 02:40:00,
2013-06-02 21:45:00,42.3,36.9,27.98,North,351,0.0,0.0,81,0.00,,---,0.01,VWS V14.01,2013-06-03 02:45:00,
2013-06-02 21:50:00,41.8,36.7,27.98,North,351,0.0,0.0,82,0.00,,---,0.01,VWS V14.01,2013-06-03 02:50:00,
2013-06-02 21:55:00,41.1,36.6,27.98,North,351,0.0,0.0,84,0.00,,---,0.01,VWS V14.01,2013-06-03 02:55:00,
2013-06-02 22:00:00,40.5,36.0,27.98,North,351,0.0,0.0,84,0.00,,---,0.01,VWS V14.01,2013-06-03 03:00:00,
2013-06-02 22:05:00,40.1,34.8,27.98,North,351,0.0,0.0,81,0.00,,---,0.01,VWS V14.01,2013-06-03 03:05:00,
2013-06-02 22:11:00,40.0,34.3,27.98,North,351,0.0,0.0,80,0.00,,---,0.01,VWS V14.01,2013-06-03 03:11:00,
2013-06-02 22:16:00,40.0,36.2,27.98,North,351,0.0,0.0,86,0.00,,---,0.01,VWS V14.01,2013-06-03 03:16:00,
2013-06-02 22:21:00,39.8,36.5,27.98,North,351,0.0,0.0,88,0.00,,---,0.01,VWS V14.01,2013-06-03 03:21:00,
2013-06-02 22:26:00,39.6,36.6,27.98,North,351,0.0,0.0,89,0.00,,---,0.01,VWS V14.01,2013-06-03 03:26:00,
2013-06-02 22:31:00,39.3,36.3,27.99,North,351,0.0,0.0,89,0.00,,---,0.01,VWS V14.01,2013-06-03 03:31:00,
2013-06-02 22:36:00,38.9,36.2,27.99,North,351,0.0,0.0,90,0.00,,---,0.01,VWS V14.01,2013-06-03 03:36:00,
2013-06-02 22:41:00,38.4,35.7,27.99,North,351,0.0,0.0,90,0.00,,---,0.01,VWS V14.01,2013-06-03 03:41:00,
2013-06-02 22:46:00,38.0,35.3,27.99,North,351,0.0,0.0,90,0.00,,---,0.01,VWS V14.01,2013-06-03 03:46:00,
2013-06-02 22:52:00,37.6,35.2,27.99,North,351,0.0,0.0,91,0.00,,---,0.01,VWS V14.01,2013-06-03 03:52:00,
2013-06-02 22:57:00,37.2,34.8,27.99,North,351,0.0,0.0,91,0.00,,---,0.01,VWS V14.01,2013-06-03 03:57:00,
2013-06-02 23:01:00,36.6,34.2,27.99,North,351,0.0,0.0,91,0.00,,---,0.01,VWS V14.01,2013-06-03 04:01:00,
2013-06-02 23:02:00,36.6,34.2,27.99,North,351,0.0,0.0,91,0.00,,---,0.01,VWS V14.01,2013-06-03 04:02:00,
2013-06-02 23:04:00,36.5,34.1,27.99,North,351,0.0,0.0,91,0.00,,---,0.01,VWS V14.01,2013-06-03 04:04:00,
2013-06-02 23:09:00,36.2,34.1,27.99,North,351,0.0,0.0,92,0.00,,---,0.01,VWS V14.01,2013-06-03 04:09:00,
2013-06-02 23:14:00,35.9,33.8,27.99,North,351,0.0,0.0,92,0.00,,---,0.01,VWS V14.01,2013-06-03 04:14:00,
2013-06-02 23:19:00,35.7,33.6,27.99,North,351,0.0,0.0,92,0.00,,---,0.01,VWS V14.01,2013-06-03 04:19:00,
2013-06-02 23:24:00,35.5,33.4,27.99,North,351,0.0,0.0,92,0.00,,---,0.01,VWS V14.01,2013-06-03 04:24:00,
2013-06-02 23:29:00,35.3,33.5,27.99,North,351,0.0,0.0,93,0.00,,---,0.01,VWS V14.01,2013-06-03 04:29:00,
2013-06-02 23:34:00,35.0,33.2,27.99,North,351,0.0,0.0,93,0.00,,---,0.01,VWS V14.01,2013-06-03 04:34:00,
2013-06-02 23:40:00,34.7,32.9,27.99,North,351,0.0,0.0,93,0.00,,---,0.01,VWS V14.01,2013-06-03 04:40:00,
2013-06-02 23:45:00,34.4,32.6,27.99,North,351,0.0,0.0,93,0.00,,---,0.01,VWS V14.01,2013-06-03 04:45:00,
2013-06-02 23:50:00,34.5,32.7,27.99,North,351,0.0,0.0,93,0.00,,---,0.01,VWS V14.01,2013-06-03 04:50:00,
2013-06-02 23:55:00,34.7,33.2,27.99,North,351,0.0,0.0,94,0.00,,---,0.01,VWS V14.01,2013-06-03 04:55:00,